User: anonymous   Login
Location: Mentone
(34.5413°N, 85.5351°W)
Time: 13:18:43
(UTC-05:00)
Language:

Tiros 1 despin weight - Orbit

View from above orbital plane
View from above orbital plane
View from above satellite
View from above satellite

Ground track
Ground track

The orbit data is extracted from the following two-line orbital elements,

1   115U 60002D   17080.54170566 +.00000081 +00000-0 +37174-4 0  9990
2   115 048.1662 205.0337 0034366 073.1855 287.2823 14.83030417016052
Epoch (UTC): 21 March 2017 13:00:03
Eccentricity: 0.0034366
inclination: 48.1662°
perigee height: 596 km
apogee height: 644 km
right ascension of ascending node: 205.0337°
argument of perigee: 73.1855°
revolutions per day: 14.83030417
mean anomaly at epoch: 287.2823°
orbit number at epoch: 1605

The dashed part of the orbit path shows where the satellite is in the earth's shadow,  

DLR